2020-102D (47299 NORAD) Tracking and Keplerian Element Data

This shows tracking and keplerian element data for the satellite.

Feedback or suggestion? Click here.




ElementValue
Catalog47299
Name2020-102D
Epoch Orbit1744
Epoch Day106.08170432
Epoch Year2021
RAAN204.7367
Inclination97.4299
Eccentricity0.0006786
Argument of Perigee109.942
Mean Anonmoly14.2934
Mean Motion15.19962083
Decay Rate1.061E-05
L11 47299U 20102D 21106.08170432 .00001061 00000-0 52469-4 0 9999
L22 47299 97.4299 204.7367 0006786 109.9420 14.2934 15.19962083 17447

Live tracking and technical data element details for 2020-102D (NORAD 47299). 2020-102D can be tracked NOW for your location showing map with azimuth and elevation plus other details from your city location.

Track the satellite on the map from your city or location and see movement details for azimuth, elevation, latitude, longitude, range, height, and movement on the map or in text.







IsCatalogInMostPopularTable: catalog: 47299, numindb: 31
Update: records affected: 1



GetName: 47299 2020-102D

Hit Count: updated at: Fri, 16 Apr 2021 11:47:36 GMT